Location: D�pe
(52.6057°N, 8.1808°E)
Time: 07:04:01
(UTC+00:00)

Cosmos 2074 Rocket - Pass Details

Date: 29 October 2020
Orbit: 967 x 987 km, 82.9° (Epoch: 01 December)

Event Time Altitude Azimuth Distance (km) Brightness Sun altitude
Rises 18:49:37 0° 350° (N) 3,677 7.3 -25.8°
Reaches altitude 10° 18:52:10 10° 354° (N) 2,724 6.5 -26.2°
Enters shadow 18:58:05 65° 60° (ENE) 1,062 3.9 -27.1°
